This demonstration page uses our WeatherBlox Daily Observations layout. Learn more.

Left ArrowRight Arrow

39.92423, -83.80882

Hourly Observations for February 19, 2016

Temp ( °F °C ) Dew Point ( °F °C ) Humidity (%) Winds ( mph kmh ) Pressure ( in mb ) Visibility ( mi km ) Precip ( " mm )
12:56 am 00:56 Clear 35 1.6 27 -2.7 73 73 SE 14 22 30.25 1025 10 16 N/A
1:56 am 01:56 Clear 35 1.6 28 -2.2 76 76 SE 14 22 30.23 1024 10 16 N/A
2:56 am 02:56 Clear 35 1.6 28 -2.2 76 76 SE 16 26 30.21 1023 10 16 N/A
3:56 am 03:56 Clear 36 2.2 28 -2.2 73 73 SE 15 24 30.18 1022 10 16 N/A
4:56 am 04:56 Clear 36 2.2 28 -2.2 73 73 SSE 16 26 30.15 1021 10 16 N/A
5:56 am 05:56 Clear 37 2.7 29 -1.6 74 74 SSE 10 17 30.14 1021 10 16 N/A
6:56 am 06:56 Clear 38 3.3 30 -1.1 73 73 SSE 13 20 30.11 1020 10 16 N/A
7:56 am 07:56 Sunny 40 4.4 30 -1.1 68 68 SSE 14 22 30.09 1019 10 16 N/A
8:56 am 08:56 Mostly Cloudy 44 6.6 32 undefined 63 63 S 18 30 30.06 1018 10 16 N/A
9:56 am 09:56 Cloudy 46 7.7 33 0.5 61 61 S 12 19 30.05 1018 10 16 N/A
10:56 am 10:56 Partly Cloudy 49 9.4 35 1.6 59 59 S 16 26 29.98 1015 10 16 N/A
11:56 am 11:56 Sunny 56 13.3 37 2.7 49 49 SSW 23 37 29.94 1014 10 16 N/A
12:56 pm 12:56 Sunny 59 15 37 2.7 44 44 SW 32 52 29.88 1012 10 16 N/A
1:56 pm 13:56 Cloudy 59 15 38 3.3 46 46 SSW 25 41 29.85 1011 10 16 N/A
2:56 pm 14:56 Mostly Cloudy 61 16.1 38 3.3 43 43 SSW 22 35 29.81 1010 10 16 N/A
3:56 pm 15:56 Sunny 63 17.2 40 4.4 43 43 SW 32 52 29.80 1009 10 16 N/A
4:56 pm 16:56 Sunny 63 17.2 40 4.4 43 43 SW 24 39 29.81 1010 10 16 N/A
5:56 pm 17:56 Mostly Cloudy 60 15.5 43 6.1 54 54 SW 28 44 29.83 1010 10 16 N/A
6:56 pm 18:56 Partly Cloudy 59 15 45 7.2 60 60 SW 24 39 29.85 1011 10 16 N/A
7:56 pm 19:56 Mostly Cloudy 58 14.4 46 7.7 64 64 SW 21 33 29.89 1012 10 16 N/A
8:56 pm 20:56 Mostly Clear 58 14.4 48 8.8 69 69 SW 22 35 29.91 1013 10 16 N/A
9:56 pm 21:56 Clear 56 13.3 49 9.4 77 77 SW 22 35 29.93 1014 10 16 N/A
10:56 pm 22:56 Clear 56 13.3 48 8.8 74 74 WSW 23 37 29.95 1014 10 16 N/A
11:56 pm 23:56 Clear 55 12.7 48 8.8 77 77 WSW 16 26 29.97 1015 10 16 N/A

Powered by AerisWeather